Location: Buchloe
(48.0161°N, 10.7316°E)
Time: 05:03:40
(UTC+02:00)

ISS - Pass Details

Date: 17 May 2018
Orbit: 402 x 407 km, 51.6° (Epoch: 25 May)

Event Time Altitude Azimuth Distance (km) Brightness Sun altitude
Exits shadow 01:06:26 15° 71° (ENE) 1,177 -1.3 -22.7°
Drops below altitude 10° 01:07:07 10° 69° (ENE) 1,457 -0.8 -22.7°
Sets 01:09:13 0° 68° (ENE) 2,318 0.3 -22.7°
